Temp
9 9 8 8 8 8 7 7 7 7 7 7 7 6 6 5 5 5 5 5 5 5 5 5 5 5 5 5 5 4 5 5 5 4 4 4 4 5 5 5 5 6 6 6 7 7 7 7 8 8 8 8 8 8 9 9 10 10 11 12 12 13 14 14 15 15 16 16 16 16 16 15 15 16 16 16 16 16 16 16 15 15 15 15 15
8 8 8 8 7 7 7 7 6 6 6 6 6 6 5 5 5 5 5 5 5 5 5 5 5 5 5 5 4 4 4 4 4 4 4 4 4 4 4 4 5 5 5 6 6 6 6 7 7 7 7 8 8 8 8 8 9 9 10 10 11 12 12 13 14 15 16 16 16 16 16 15 15 16 16 16 16 16 16 16 15 15 15 15 15
8 8 8 7 7 7 7 6 6 6 6 6 5 5 5 5 5 5 5 5 5 5 5 5 5 5 5 4 4 4 4 4 4 4 4 4 4 4 4 4 4 5 5 5 6 6 6 7 7 7 7 7 7 8 8 8 8 9 9 9 10 10 11 11 12 13 15 16 16 16 16 16 15 15 15 15 16 15 15 16 15 15 15 15 15
8 8 7 7 7 7 6 6 6 6 5 5 5 5 5 5 5 5 5 5 5 4 4 4 4 4 4 4 4 4 4 4 3 3 3 4 4 4 4 4 4 5 5 5 5 6 6 6 6 6 6 7 7 7 7 7 7 8 8 8 9 9 10 10 10 11 12 14 15 16 16 16 16 15 15 15 15 15 15 15 15 15 15 14 15
8 8 7 7 7 7 6 6 6 6 5 5 5 5 5 5 5 5 5 5 5 4 4 4 4 4 4 4 4 4 4 3 3 3 3 3 3 4 4 4 4 4 5 5 5 6 6 6 6 6 6 6 7 7 7 6 6 7 7 7 7 8 8 9 9 10 10 12 14 15 16 16 16 15 15 15 15 15 15 15 15 15 14 14 14
8 7 7 7 7 7 6 6 6 6 5 5 5 5 5 5 5 5 5 5 5 4 4 4 4 4 4 4 4 4 4 3 3 3 3 3 3 4 4 4 4 4 4 5 5 6 6 6 6 6 6 6 6 6 6 6 6 6 6 6 6 7 7 8 8 9 10 11 12 13 14 15 15 15 15 15 15 15 15 15 15 15 14 14 14
7 7 7 6 6 6 6 6 6 5 5 5 5 5 5 5 5 4 5 5 4 4 4 4 4 4 3 3 3 3 3 3 2 2 2 3 3 3 4 4 4 4 5 5 5 5 5 5 5 5 5 5 5 5 5 5 5 5 5 5 5 6 6 7 7 8 9 10 11 12 13 14 15 16 16 15 15 15 15 15 15 14 14 14 14
7 7 6 6 6 6 6 6 5 5 5 5 5 5 5 5 4 4 4 4 4 4 4 4 4 3 3 3 3 3 3 2 2 2 2 2 2 3 3 3 4 4 4 5 5 5 5 5 5 5 5 5 5 4 4 4 4 4 4 4 5 5 5 5 6 7 8 9 11 11 12 14 14 15 15 15 15 14 15 15 15 15 14 14 14
7 6 6 6 6 6 6 6 6 5 5 5 5 5 5 4 4 4 4 4 4 4 4 3 3 3 3 3 3 3 3 2 2 3 3 2 2 3 3 3 3 4 4 4 4 4 5 5 5 5 4 4 4 4 4 4 4 4 4 4 4 4 4 4 5 6 6 8 9 11 12 13 14 15 15 15 15 15 15 15 15 15 14 14 14
6 6 6 5 5 6 6 6 6 5 5 5 5 5 5 4 4 4 4 4 4 4 3 3 3 3 3 3 3 3 2 2 3 3 3 3 3 2 3 4 4 4 4 4 4 4 4 4 4 4 4 4 3 3 3 3 3 3 3 3 3 3 3 3 4 5 5 7 8 10 11 12 13 14 15 15 15 15 15 14 14 14 14 14 14
6 6 5 5 6 6 6 6 6 5 5 5 5 5 4 4 4 4 4 4 3 3 3 3 3 3 3 3 3 3 2 2 3 4 4 4 3 2 3 4 4 4 4 4 4 3 3 4 4 4 4 4 3 3 3 2 2 2 2 2 3 2 2 3 3 4 5 6 7 8 10 11 12 14 15 15 15 15 15 14 14 14 14 13 14
5 5 5 5 6 6 6 6 5 5 5 5 5 4 4 4 4 4 3 3 3 3 3 3 3 3 3 3 3 3 2 2 3 4 4 5 4 2 3 4 4 4 3 3 3 3 3 3 3 3 3 3 3 3 2 2 2 2 2 3 4 4 3 3 3 4 4 5 6 7 8 10 11 13 14 15 15 15 15 15 14 14 14 13 14
5 5 5 6 6 6 6 6 5 5 5 5 5 4 4 4 4 4 3 3 3 3 3 2 3 3 3 3 3 3 2 2 3 4 4 5 4 3 3 3 4 3 3 3 2 2 2 2 2 2 3 2 2 2 2 1 2 3 3 3 4 4 4 4 4 4 4 5 5 6 7 8 10 12 13 15 15 15 15 14 14 14 14 13 14
5 5 6 6 6 6 6 6 5 5 5 5 5 5 4 4 4 4 3 3 3 3 3 2 3 3 3 3 3 3 2 2 3 4 4 5 4 2 3 3 3 3 3 2 2 2 2 2 2 2 2 2 2 1 1 1 1 2 3 3 3 4 4 4 5 6 6 5 5 5 6 6 8 10 12 13 14 14 14 14 14 14 14 14 14
6 6 6 6 6 6 6 6 5 5 5 5 5 4 4 4 4 4 3 3 3 3 2 2 2 2 2 3 3 2 2 2 3 3 4 5 4 2 3 3 3 3 2 2 2 2 2 2 2 2 1 1 1 1 1 0 1 1 2 3 3 3 4 5 5 6 6 6 5 5 6 6 6 7 10 12 13 14 14 14 14 14 14 14 14
6 6 6 6 6 6 6 6 5 5 5 5 5 4 4 4 4 4 3 3 3 3 2 2 2 2 2 2 2 2 2 2 2 2 3 4 3 2 3 3 3 2 2 2 2 2 2 2 2 1 1 1 1 1 1 0 1 1 2 2 3 3 4 4 5 5 5 6 6 6 6 6 6 6 8 10 12 13 13 13 13 13 13 13 13
6 6 6 6 6 6 6 6 5 5 5 5 5 4 4 4 4 4 4 3 3 3 2 2 2 2 2 2 2 2 2 2 2 2 3 3 3 2 2 3 2 2 2 2 2 3 2 2 1 1 1 0 1 1 1 1 1 1 2 2 2 3 3 4 4 5 5 5 6 7 8 8 7 6 7 9 10 11 12 13 13 13 12 13 12
6 6 6 6 6 6 6 6 5 5 5 5 5 4 4 4 4 4 4 3 3 3 3 3 2 2 2 2 1 2 2 2 2 2 2 3 2 2 2 2 2 1 2 2 2 2 2 2 1 1 1 0 1 1 1 0 0 1 1 2 2 3 3 3 4 5 5 5 7 8 9 9 8 7 8 9 10 11 11 12 13 13 12 12 13
6 6 6 6 6 6 6 6 6 5 5 5 5 5 5 5 4 4 4 4 3 3 3 3 2 2 2 2 1 2 2 2 2 2 2 2 2 1 2 2 1 1 2 2 2 2 2 2 2 1 0 0 0 1 1 0 0 1 1 1 2 2 2 2 3 4 5 5 6 7 8 8 8 8 9 9 10 11 11 11 11 12 12 12 12
6 6 6 6 6 6 6 6 6 5 5 5 5 5 5 5 5 5 4 4 4 3 3 3 3 2 2 2 2 2 2 2 2 2 2 2 1 1 1 1 1 1 2 2 2 2 2 2 2 1 1 1 1 0 1 1 0 1 1 1 1 1 2 2 3 4 5 5 5 5 6 7 7 8 9 9 10 10 10 11 11 11 12 12 12
6 6 6 6 6 6 6 6 6 5 5 5 5 5 5 5 5 5 4 4 4 4 3 3 3 3 2 2 2 2 2 1 1 2 2 2 2 1 1 1 0 1 2 2 2 2 2 2 2 1 1 1 1 0 0 1 1 1 1 0 1 1 2 2 3 4 4 4 4 4 5 5 6 6 7 8 9 9 9 10 10 10 11 12 12
6 6 6 6 6 6 6 6 6 6 5 5 5 5 5 5 5 5 5 4 4 4 3 3 3 3 3 2 2 2 2 1 1 2 2 2 2 2 1 1 1 1 2 2 2 2 2 2 1 1 1 1 1 0 0 0 1 1 1 1 1 2 2 2 3 3 3 4 4 4 4 4 5 5 5 6 7 8 8 9 9 10 10 11 12
7 6 6 6 6 6 6 6 6 6 6 6 6 5 5 5 5 5 5 4 4 4 4 3 3 3 3 3 2 2 2 2 2 2 2 2 2 2 2 2 1 1 2 2 2 2 2 1 1 1 1 1 1 1 0 0 0 0 1 1 1 2 2 2 2 3 3 3 3 4 3 4 4 4 4 5 6 7 7 8 9 9 10 10 11
7 7 7 6 6 6 6 6 6 6 6 6 6 6 6 5 5 5 5 5 5 5 4 4 4 4 4 3 3 2 3 3 2 2 2 2 2 2 2 2 2 1 1 2 1 1 1 1 1 1 1 1 1 1 0 0 0 0 1 1 1 1 1 1 1 2 2 3 3 3 3 3 3 3 4 4 5 6 7 7 8 9 9 9 10
7 7 7 6 6 6 6 6 6 6 6 6 6 6 6 6 6 5 5 5 5 5 5 4 4 4 4 3 3 3 3 3 3 2 2 2 2 2 2 2 2 1 1 1 1 1 1 1 1 2 2 1 1 1 0 0 0 0 1 1 1 0 1 1 1 1 2 2 2 3 3 3 3 3 4 4 5 6 7 7 7 8 8 8 9
7 7 7 7 6 6 6 6 6 6 6 6 6 6 6 6 6 6 5 5 5 5 5 4 4 4 4 3 3 3 3 3 3 2 2 2 2 2 2 2 2 1 1 1 1 1 1 2 2 2 2 2 1 1 0 0 0 0 0 1 0 0 0 1 1 1 1 1 1 2 2 3 3 3 3 4 5 5 5 6 6 7 7 7 7
7 7 7 7 7 7 6 6 6 6 7 7 6 6 6 6 6 6 6 5 5 5 5 4 4 4 4 3 3 3 3 3 2 2 2 2 2 2 2 2 2 2 2 2 2 2 2 2 2 2 2 2 2 1 1 1 0 0 0 0 0 -0 0 0 1 0 1 1 1 1 2 2 3 3 3 3 3 4 4 5 5 6 6 6 6
7 7 7 7 7 7 7 7 7 7 7 7 7 7 6 6 6 6 6 5 5 5 5 5 4 3 3 3 3 3 3 3 2 2 2 2 2 2 2 2 2 2 2 2 2 2 2 2 2 2 2 2 2 2 1 1 1 0 0 0 -0 0 0 0 1 1 1 1 1 1 1 2 2 2 3 3 3 3 4 4 5 5 5 5 5
8 7 7 7 7 7 7 7 7 7 7 7 7 7 7 6 6 6 6 5 5 5 5 4 4 3 3 3 3 3 3 3 2 2 2 2 2 2 2 2 2 2 2 2 2 2 2 2 2 2 2 2 2 2 2 1 1 0 0 0 -0 -0 0 0 0 0 1 1 1 1 1 1 1 2 2 2 2 3 3 3 4 5 5 5 5
8 8 8 7 7 7 7 7 7 7 7 7 7 7 7 6 6 6 6 6 5 5 5 5 4 4 3 3 3 3 2 2 2 2 2 2 2 2 2 2 2 2 2 2 2 2 3 3 2 2 2 2 2 2 2 2 1 1 0 0 -0 -0 0 -0 -0 0 1 1 1 1 1 1 1 1 2 2 2 2 2 3 3 3 4 4 4
8 8 8 8 7 7 7 7 8 7 7 7 7 7 7 7 6 6 6 6 5 5 5 5 4 4 4 3 3 3 2 2 2 2 2 2 2 2 2 2 2 2 2 2 2 2 2 2 2 2 2 2 2 2 2 2 1 1 1 0 0 -0 -0 -0 -0 0 1 1 1 1 1 1 1 1 1 2 2 2 2 2 2 2 2 2 3
8 8 8 8 8 8 8 8 8 8 8 7 7 7 7 7 7 6 6 6 6 5 5 5 5 4 4 4 3 3 3 3 2 2 2 2 2 2 2 2 2 2 2 2 2 2 2 2 2 2 2 2 2 2 2 2 2 1 1 1 0 0 0 -0 0 0 1 1 1 1 1 1 1 1 1 1 2 2 2 2 2 2 2 2 1
8 8 8 8 8 8 8 8 8 8 8 8 8 7 7 7 7 7 6 6 6 5 5 5 5 5 4 4 4 3 3 3 3 3 3 2 2 2 2 2 2 2 2 2 2 2 2 2 3 2 2 2 2 2 2 2 2 2 2 1 1 1 1 0 0 1 1 1 1 1 1 1 1 1 1 2 2 1 1 1 1 1 1 1 1
9 9 8 8 8 8 8 8 8 8 8 8 8 7 7 7 7 7 7 7 6 6 6 5 5 5 5 4 4 4 4 3 3 3 3 3 3 3 3 2 2 2 2 2 2 2 2 2 3 2 2 2 2 2 2 2 2 2 2 2 2 2 2 1 1 1 1 1 2 2 2 2 2 2 2 2 2 1 1 1 1 1 1 1 1
9 9 9 8 8 8 8 8 8 8 8 8 8 7 7 7 7 7 7 7 7 7 6 6 6 5 5 5 4 4 4 4 4 3 3 3 3 3 3 3 3 3 3 3 2 2 2 2 2 2 2 2 2 2 2 2 2 2 2 3 2 2 2 2 2 1 1 2 2 2 3 3 2 2 2 2 2 1 1 1 1 1 1 1 1
9 9 9 8 8 8 8 8 8 8 8 8 8 7 7 7 7 7 7 7 7 7 7 6 6 6 5 5 5 4 4 4 4 4 3 3 3 3 3 3 3 3 3 3 2 2 2 2 2 2 2 2 2 2 2 2 2 2 2 3 3 3 2 2 2 2 2 2 3 3 3 3 3 3 3 2 2 1 1 1 0 0 1 1 1
9 9 9 9 8 8 8 8 8 8 8 8 8 8 7 7 7 7 7 7 7 7 7 6 6 6 6 5 5 5 5 4 4 4 4 4 3 3 3 3 3 3 3 3 2 2 3 2 2 2 2 2 2 2 2 2 2 2 2 3 3 3 3 3 3 3 3 3 3 3 4 4 3 3 3 3 3 2 1 1 0 0 0 1 1
9 9 9 9 9 8 8 8 8 8 8 8 8 8 8 7 7 7 7 7 7 7 7 7 6 6 6 6 5 5 5 5 5 5 4 4 4 3 3 3 3 3 3 3 3 2 3 2 2 2 2 2 2 2 2 2 2 2 2 2 3 3 3 3 3 4 3 3 3 4 4 4 3 3 3 3 3 2 2 1 1 1 0 0 0
9 9 9 9 9 9 9 9 8 8 8 8 8 8 8 8 7 7 7 7 7 7 7 7 7 7 6 6 6 5 5 5 5 5 4 4 4 4 4 4 3 3 3 3 3 3 3 2 2 2 2 2 2 2 2 2 2 2 2 2 2 3 3 3 3 3 3 3 3 4 4 4 3 3 3 3 3 3 2 2 1 1 1 0 0
9 9 9 9 9 9 9 9 9 9 8 8 8 8 8 8 8 8 8 7 8 7 7 7 7 7 6 6 6 6 6 5 5 5 5 4 4 4 4 4 4 3 3 3 3 3 3 3 2 2 2 2 1 1 1 1 1 1 2 2 2 2 3 3 3 3 3 3 3 4 4 4 4 3 3 3 3 3 3 2 2 1 1 1 1
9 9 9 9 9 9 9 9 9 9 9 8 8 9 9 8 8 8 8 7 8 7 7 7 7 7 6 6 6 6 6 5 5 5 5 4 4 4 4 4 4 3 3 3 3 3 2 2 2 2 2 2 1 1 1 1 1 1 1 2 2 2 2 3 3 3 3 3 3 4 4 4 4 4 4 4 4 3 3 3 3 3 2 2 2
9 9 9 9 9 9 9 9 9 9 9 9 9 9 9 8 8 8 8 8 7 7 7 7 7 7 7 6 6 6 6 5 5 5 5 5 5 4 4 4 4 3 3 3 3 2 2 2 2 2 2 2 1 1 1 1 1 1 1 1 2 2 2 2 3 3 3 3 3 4 4 4 4 4 4 4 4 4 4 4 4 3 3 3 3
9 9 9 9 9 9 9 9 9 9 9 9 9 9 9 8 8 8 8 8 8 7 7 7 7 7 7 6 6 6 6 6 6 5 5 5 5 5 4 4 4 4 3 3 3 3 2 2 2 2 2 2 2 1 1 1 1 1 1 1 1 1 2 2 2 2 3 3 3 3 3 4 4 4 4 4 4 4 4 4 4 4 4 4 4
9 9 9 9 9 9 9 9 9 9 9 9 9 9 9 8 8 8 8 8 8 7 7 7 7 7 7 7 6 6 6 6 6 6 5 5 5 5 5 4 4 4 4 3 3 3 3 3 2 2 2 2 2 2 2 2 1 1 1 1 1 1 1 2 2 2 2 2 2 3 3 3 3 3 4 4 4 4 4 4 4 4 4 4 4
9 9 9 9 9 9 9 9 9 9 9 9 9 9 8 8 8 8 8 8 8 8 8 7 7 7 7 7 7 7 6 6 6 6 5 5 5 5 5 4 4 4 4 4 3 3 3 3 3 3 3 2 2 2 2 2 2 2 1 1 1 1 1 1 1 2 2 2 2 2 3 3 3 3 3 4 4 4 4 4 4 4 4 4 4
9 9 9 9 9 9 9 9 9 9 9 9 9 9 8 8 8 8 8 8 8 8 8 8 7 7 7 7 7 7 6 6 6 6 6 5 5 5 5 5 4 4 4 4 4 4 3 3 3 3 3 3 3 2 2 2 2 2 2 1 1 1 1 1 2 2 2 2 2 2 2 2 2 2 3 3 3 4 4 4 4 4 4 4 4
9 9 9 9 9 9 9 9 9 9 9 9 9 9 8 8 8 8 8 8 8 8 8 8 8 8 7 7 7 7 6 6 6 6 6 6 5 5 5 5 5 4 4 4 4 4 4 3 3 3 3 3 3 3 3 2 2 2 2 2 2 2 2 2 2 2 2 2 2 2 2 2 2 2 2 2 3 3 3 3 4 4 4 4 4
8 8 9 9 9 9 9 9 9 9 9 9 9 9 9 8 8 8 8 8 8 8 8 8 8 8 7 7 7 7 7 6 6 6 6 6 5 5 5 5 5 5 4 4 4 4 4 4 4 3 3 3 3 3 3 3 3 3 3 2 2 2 2 2 2 2 2 2 2 2 2 2 2 2 2 2 2 2 3 3 3 4 4 4 4
8 8 8 9 9 9 9 9 9 9 9 9 9 9 9 8 8 8 8 8 8 8 8 8 8 8 7 7 7 7 7 7 6 6 6 6 6 5 5 5 5 5 4 4 4 4 4 4 4 4 4 3 3 3 3 3 3 3 3 3 3 3 2 2 2 2 2 2 2 2 2 2 2 2 2 2 2 2 2 2 3 3 4 4 4
8 8 8 8 8 9 9 9 9 9 9 9 9 9 9 9 9 8 8 8 8 8 8 8 8 8 8 7 7 7 7 7 7 6 6 6 6 5 5 5 5 5 5 4 4 4 4 4 4 4 4 4 3 3 3 3 3 3 3 3 3 3 3 3 2 2 2 2 2 2 2 2 2 2 2 2 2 2 2 2 2 3 4 4 4
8 8 8 8 8 8 8 8 9 9 9 9 9 9 9 9 9 9 9 9 9 8 8 8 8 8 8 7 7 7 7 7 7 7 6 6 6 6 5 5 5 5 5 5 4 4 4 4 4 4 4 4 4 4 3 3 3 3 3 3 3 3 3 3 2 2 2 2 2 2 2 2 2 2 1 1 1 2 2 2 2 2 3 4 4
Height
851 850 850 850 849 849 848 847 846 846 846 846 845 845 845 845 845 845 845 845 845 845 845 844 843 843 842 842 841 839 838 836 834 833 832 831 829 827 825 824 822 821 819 818 816 814 812 810 809 807 805 803 801 799 797 795 794 792 790 788 786 784 783 781 778 772 770 771 772 771 771 772 771 771 772 772 773 773 774 774 775 777 777 777 777
852 852 852 852 851 850 850 849 848 848 847 847 847 847 846 846 846 846 846 846 847 846 846 845 844 844 843 843 842 840 839 837 835 834 833 831 830 828 826 824 822 821 819 817 816 814 812 810 808 807 805 803 801 799 797 795 793 791 789 787 785 783 782 780 776 771 766 766 768 767 767 768 767 767 768 768 768 770 770 770 771 772 773 773 774
854 854 853 853 853 852 851 851 850 849 848 848 848 848 848 847 847 847 847 847 848 847 847 846 846 845 844 844 842 841 840 838 837 835 834 832 830 829 827 825 823 821 819 817 816 814 812 810 809 807 805 803 801 799 797 795 793 791 788 787 784 782 780 779 777 773 766 762 763 763 762 763 763 763 764 764 764 765 766 766 767 768 769 770 770
855 855 855 854 854 853 853 852 852 851 851 850 850 850 849 849 849 848 848 849 849 849 848 847 847 846 845 844 843 842 841 839 838 836 834 832 831 829 828 826 823 822 820 818 816 814 812 810 808 806 804 802 801 799 797 795 793 790 788 786 784 781 779 778 776 774 769 762 759 759 758 759 759 759 760 760 760 760 761 762 763 764 765 766 766
856 856 856 855 855 854 854 854 854 853 853 852 852 851 850 851 851 850 850 850 850 850 849 848 847 846 846 845 844 844 842 840 839 837 835 833 831 830 828 826 824 822 820 818 817 815 812 810 808 806 804 802 800 798 796 794 792 790 788 785 783 781 778 776 774 772 769 764 758 756 755 755 754 754 755 756 756 756 756 757 758 759 760 761 762
856 856 856 856 856 856 855 855 855 855 855 854 854 853 852 852 852 852 852 851 851 851 850 849 848 847 847 846 845 845 843 841 839 837 835 833 831 830 828 826 824 822 820 818 817 815 813 810 808 806 804 802 800 798 796 794 792 790 787 785 783 780 777 774 772 770 767 763 758 755 753 752 750 750 750 752 752 752 752 752 753 754 755 756 757
856 856 856 856 857 857 857 857 857 857 857 856 856 855 855 854 854 854 853 853 852 852 851 850 849 848 848 847 847 846 844 842 840 838 836 833 831 830 828 826 824 822 820 818 816 815 812 811 808 806 804 802 800 798 795 793 791 789 787 784 781 779 776 773 770 768 765 760 756 752 750 749 747 745 746 747 748 748 748 748 748 749 750 751 751
857 857 857 857 858 858 858 858 858 858 858 858 857 857 856 856 855 855 854 854 853 853 852 851 850 849 849 848 848 847 846 844 841 838 836 834 832 830 828 826 824 822 820 818 816 814 812 810 808 806 804 802 800 798 796 793 790 787 785 783 780 778 775 771 768 766 763 758 754 750 747 746 744 742 742 743 743 742 743 743 743 744 746 746 747
857 858 858 859 859 859 860 860 860 860 860 859 859 858 857 857 856 856 855 855 854 854 853 852 851 851 850 850 850 849 847 845 843 840 837 834 832 831 829 827 824 822 820 818 816 814 812 810 808 806 804 801 799 797 795 793 790 787 783 781 778 776 773 770 767 763 760 756 752 748 744 741 739 739 737 736 736 736 738 739 740 740 741 742 742
858 859 860 860 861 861 861 861 861 861 861 860 860 859 858 858 857 857 856 856 855 855 854 853 852 852 852 851 851 850 849 846 844 842 839 836 833 831 829 827 825 823 820 818 816 814 812 810 807 805 802 800 798 795 793 791 788 786 783 779 777 773 770 767 763 761 758 754 749 746 741 737 734 734 732 731 732 733 733 735 735 736 737 737 737
858 860 862 862 862 862 862 862 863 862 862 862 861 860 860 859 859 858 858 857 856 856 854 854 853 853 853 853 852 852 850 848 845 842 839 836 832 830 830 828 825 823 821 818 816 814 812 809 807 804 801 799 796 793 790 787 784 781 777 775 772 770 767 763 759 756 754 750 745 742 739 733 730 729 727 726 727 727 727 729 730 731 732 733 733
859 861 863 864 863 863 863 864 864 864 864 863 863 862 861 861 860 860 859 859 858 856 855 855 855 855 855 855 854 853 851 848 845 842 839 836 832 830 830 828 826 824 821 819 816 814 811 809 806 804 801 798 795 792 788 784 779 775 771 767 764 762 761 759 755 751 748 745 741 738 734 730 726 724 723 722 721 722 722 724 725 726 727 728 729
859 862 864 865 864 864 865 865 865 866 866 865 864 864 863 862 862 862 861 860 859 858 857 856 857 857 857 856 855 854 852 848 845 841 838 835 832 831 830 829 827 825 822 819 817 814 812 809 806 803 800 797 794 791 788 782 775 770 765 761 758 755 753 752 749 746 743 740 737 732 728 727 723 718 718 718 717 717 718 719 719 720 721 722 723
860 863 865 866 866 866 866 866 867 867 867 867 866 866 865 865 864 864 863 861 860 859 858 858 858 858 858 857 856 854 852 848 845 842 839 836 833 831 831 829 827 825 822 820 818 815 812 810 806 803 800 796 794 791 787 781 775 768 762 758 754 750 747 745 743 741 737 735 731 725 721 722 718 714 714 715 714 713 713 714 714 715 716 717 717
862 865 866 867 867 867 867 868 868 869 869 869 868 868 868 867 866 865 864 863 862 861 860 859 859 859 858 857 856 855 852 849 846 842 839 836 833 832 831 830 828 825 823 821 818 816 813 811 807 804 800 796 793 790 785 780 774 768 762 756 751 746 743 740 738 736 732 729 726 719 714 713 711 709 710 711 711 710 710 710 710 711 712 712 713
864 866 867 868 868 868 869 869 870 871 871 871 870 870 870 869 868 867 866 864 863 862 862 861 861 860 859 858 856 855 854 850 847 844 840 837 834 832 832 830 828 826 823 821 819 816 814 811 808 805 801 796 792 788 783 779 773 768 762 755 749 744 739 736 734 731 727 722 718 713 708 704 703 703 704 706 706 707 707 707 707 708 708 708 709
865 867 868 869 869 869 870 871 872 872 873 872 872 872 871 870 869 868 867 866 865 864 863 863 862 861 860 859 857 856 855 852 848 845 842 838 835 834 832 830 828 826 823 821 819 817 815 812 809 806 801 797 792 786 781 777 772 767 761 754 748 742 736 732 727 723 720 715 710 705 700 697 696 697 698 700 702 704 704 702 702 704 704 703 705
866 868 869 869 870 871 872 873 873 874 874 874 874 873 873 872 871 869 868 868 867 866 865 865 864 863 862 860 858 857 856 853 850 846 843 839 836 835 834 831 829 826 824 822 820 817 815 812 810 806 802 796 791 785 781 776 771 766 761 754 748 741 735 729 722 716 713 709 703 698 693 691 691 692 693 694 696 699 699 698 699 700 700 699 701
867 868 869 870 871 872 873 874 875 875 875 875 875 875 874 873 872 871 870 869 869 868 867 866 865 864 863 862 860 858 857 854 851 847 844 841 838 837 836 833 830 828 825 823 820 818 815 812 809 806 801 796 790 785 780 776 770 765 761 755 748 742 735 729 722 717 712 706 700 695 691 689 688 689 690 690 691 693 693 693 696 697 696 695 697
868 869 870 872 873 874 875 875 876 876 877 876 876 876 875 875 874 873 872 871 871 870 869 867 866 865 864 862 861 859 857 855 852 849 847 843 840 839 837 835 832 830 827 825 822 819 816 812 809 805 800 795 790 785 780 775 771 766 761 755 749 742 735 729 724 719 714 708 702 696 692 689 688 687 687 687 687 688 689 690 691 692 692 692 693
869 870 872 873 874 875 876 877 877 877 877 877 877 877 876 876 875 874 874 873 872 871 870 869 868 866 865 863 862 860 858 856 854 851 848 846 842 840 839 836 834 832 829 826 823 820 817 814 810 805 799 794 789 785 780 775 771 766 761 756 751 744 736 730 726 721 715 709 703 697 692 690 688 686 686 685 684 685 685 686 686 687 687 688 689
870 872 873 874 875 876 877 878 878 878 878 878 878 877 877 876 876 876 875 874 874 873 871 870 868 867 865 864 862 861 860 858 855 853 850 847 844 842 840 838 835 833 831 828 825 822 819 815 811 805 800 795 790 785 781 776 771 766 761 756 750 743 737 733 728 722 715 710 704 698 694 692 689 688 686 685 684 684 684 683 683 683 683 684 684
871 873 874 875 876 877 878 878 879 878 879 878 878 878 878 878 877 877 876 875 874 873 872 871 869 868 866 865 863 862 861 859 857 854 851 849 846 844 842 839 836 834 832 830 827 824 821 817 812 806 801 796 790 786 781 777 772 767 762 756 750 744 739 735 729 723 717 711 704 699 696 694 692 690 689 687 685 684 682 681 680 679 679 679 680
872 874 875 876 877 878 878 879 879 879 879 879 879 879 879 879 878 878 877 876 875 874 873 872 870 869 867 866 864 863 862 860 858 855 852 850 848 845 843 840 837 835 833 831 829 825 822 817 812 807 802 797 792 787 782 778 773 768 763 757 751 747 742 737 731 724 719 712 707 703 701 698 696 693 691 689 686 684 681 680 679 678 678 678 678
873 875 876 877 878 878 879 879 879 879 879 879 879 880 879 879 879 879 878 877 876 876 874 873 872 870 869 867 866 864 863 861 859 857 854 851 849 847 844 842 839 836 834 832 829 825 822 818 813 808 803 798 793 788 783 779 775 771 765 759 753 749 744 739 732 727 722 717 714 710 707 704 701 699 695 692 688 685 683 682 681 680 679 678 677
874 875 876 877 878 878 879 879 879 879 880 879 880 880 880 880 880 880 879 879 877 876 876 874 873 872 870 868 867 865 864 862 860 858 855 853 851 848 845 843 840 837 835 832 828 825 821 818 813 809 804 800 795 790 786 781 777 772 767 761 756 752 746 742 738 734 729 725 721 716 712 710 706 702 698 694 690 688 686 684 683 682 682 681 679
874 875 876 877 878 878 879 879 879 880 880 880 880 881 881 881 881 880 880 879 878 877 876 875 874 873 871 870 868 866 865 863 861 859 857 854 852 850 847 844 841 838 836 832 828 825 822 818 814 810 806 801 797 792 788 783 778 773 769 765 761 756 752 749 746 742 736 732 727 722 717 713 708 704 700 697 694 692 690 688 687 686 685 684 683
874 875 876 877 878 878 879 879 880 880 881 881 881 881 881 881 881 881 880 880 879 878 877 876 875 874 872 871 869 868 866 865 863 861 858 856 854 852 849 847 843 840 837 833 830 827 824 820 815 810 806 802 798 793 789 785 781 777 773 769 765 761 757 754 749 745 741 737 732 726 721 716 712 709 705 702 699 697 694 692 691 690 689 688 688
873 875 876 877 878 878 879 879 880 881 881 881 882 882 882 882 881 881 881 880 879 879 878 877 876 875 873 872 870 869 868 866 865 863 861 859 857 854 852 849 845 843 839 835 831 829 825 820 816 812 808 804 800 797 793 789 785 781 777 774 770 766 761 757 753 749 746 742 737 731 726 722 718 715 711 708 706 703 700 698 697 695 694 693 693
873 874 875 877 878 878 879 880 880 881 881 881 882 882 882 882 881 881 881 880 879 879 878 877 877 875 874 873 872 870 869 868 866 864 862 860 858 856 853 850 847 844 840 835 832 830 826 822 818 815 812 809 805 801 797 793 789 785 781 778 774 770 766 762 759 756 752 748 743 738 733 729 725 722 719 716 714 711 708 705 703 701 699 699 699
873 874 875 877 877 878 879 880 880 881 881 881 882 882 882 881 881 881 880 880 879 879 878 877 876 876 875 874 873 871 870 869 867 865 863 860 858 856 853 850 847 844 840 836 833 830 827 824 822 819 816 813 809 806 802 798 794 791 787 783 779 774 771 767 764 761 757 752 748 743 739 735 732 729 727 724 721 718 715 713 710 708 707 706 706
872 874 875 876 877 878 879 880 880 881 881 881 881 881 881 881 881 880 880 880 879 879 878 877 876 875 875 874 873 872 870 869 867 865 863 861 859 856 854 851 847 844 840 837 834 832 829 827 825 822 820 816 813 810 806 802 798 795 791 787 783 779 776 772 769 765 761 757 753 749 746 742 739 737 734 731 728 725 722 720 718 716 715 714 714
872 873 874 876 877 878 879 879 880 880 880 881 881 881 881 881 880 880 880 879 879 878 877 877 876 875 875 874 873 871 870 868 867 865 863 861 859 856 854 851 848 844 841 838 836 834 832 830 828 825 823 820 817 813 810 806 802 799 795 791 788 784 781 777 773 769 766 763 759 755 752 749 746 743 740 738 735 732 729 727 726 724 722 722 722
871 873 874 875 876 877 878 879 879 880 880 880 880 880 880 880 880 880 879 879 878 878 877 877 876 875 875 874 873 871 870 868 867 865 863 861 859 856 853 850 848 845 842 840 838 836 834 832 830 828 826 823 820 816 813 810 806 803 799 796 792 789 786 782 777 774 771 768 764 761 758 755 752 749 747 745 742 739 736 734 733 732 730 729 729
871 873 874 875 876 877 878 878 879 879 879 879 880 880 880 880 880 880 879 879 878 878 877 877 876 875 874 873 872 871 870 868 867 865 863 861 859 856 853 851 848 846 844 842 840 838 837 835 832 830 828 825 823 820 816 813 810 807 803 800 797 793 790 786 782 780 776 773 770 767 764 761 759 756 754 751 748 745 744 742 740 739 738 737 736
871 872 873 874 875 876 877 878 878 878 878 879 879 879 879 879 879 879 879 878 878 877 877 877 876 875 874 873 872 871 869 868 867 865 863 861 859 856 854 852 849 847 846 844 842 840 839 837 835 832 830 828 825 823 820 816 814 811 807 804 801 798 794 790 787 784 781 778 775 772 769 766 764 762 759 756 754 752 751 749 748 746 746 744 744
870 871 872 873 874 875 876 877 877 877 878 878 878 878 878 878 878 878 878 878 877 877 877 876 875 874 873 872 871 870 869 868 867 865 863 861 859 857 855 853 851 850 848 846 844 842 841 839 837 834 832 830 827 825 823 820 817 814 810 807 805 801 798 795 792 788 785 782 779 777 774 771 769 767 764 762 760 758 757 756 755 754 753 751 750
869 870 872 873 873 874 875 875 876 876 877 877 877 877 877 877 877 877 877 877 877 876 876 875 875 874 873 872 871 870 869 868 866 865 863 861 859 858 856 855 853 851 850 848 846 844 842 841 839 837 835 832 830 827 825 822 820 817 813 810 808 805 802 799 795 792 789 787 784 781 779 777 774 772 770 768 767 765 763 762 761 760 759 758 757
869 870 871 871 872 873 874 874 875 875 876 876 876 876 875 876 876 876 876 876 876 875 875 874 874 873 873 872 871 870 868 867 866 865 863 862 860 859 857 856 854 853 851 849 848 846 844 842 841 839 837 835 832 830 827 825 822 819 817 814 811 808 805 802 799 796 793 791 789 786 784 782 780 778 776 774 773 772 769 768 767 766 766 765 765
868 869 870 870 871 872 872 873 874 874 874 875 875 874 874 874 874 874 875 875 874 874 874 874 873 872 872 871 870 869 868 867 866 865 863 862 861 859 858 856 855 854 852 851 849 847 846 844 842 841 839 837 834 832 829 827 824 821 819 817 815 812 809 807 804 801 798 796 794 791 789 787 784 783 781 780 778 777 776 774 773 772 772 772 771
866 867 868 869 870 870 871 872 872 873 873 873 873 873 873 873 873 873 874 873 873 873 873 872 872 871 871 870 869 869 868 867 866 865 863 862 861 860 858 857 856 854 853 852 850 849 847 845 844 842 840 838 836 833 831 828 826 824 822 820 817 815 813 810 808 806 803 800 798 796 793 791 789 787 786 784 783 782 781 780 779 778 777 777 776
865 866 867 868 868 869 870 870 871 871 872 872 872 872 872 872 872 872 872 872 872 872 872 871 871 870 870 869 868 868 867 866 865 864 863 862 861 860 858 858 856 855 854 852 851 849 848 846 845 843 841 839 837 835 832 830 828 826 824 823 820 818 816 814 812 809 807 805 803 800 798 796 794 792 790 789 787 786 785 784 784 783 782 782 782
863 865 866 866 867 867 868 868 869 870 870 871 871 871 871 871 871 871 871 871 871 871 870 870 870 869 868 868 867 867 866 865 864 864 863 862 861 860 858 858 857 855 854 853 851 850 848 847 846 844 843 841 839 836 834 832 830 828 826 825 823 821 818 817 815 812 810 808 807 805 802 800 798 796 795 793 791 790 789 788 787 787 786 786 786
862 863 864 865 865 866 866 867 868 868 869 869 870 870 870 870 870 870 870 870 869 869 869 869 868 868 867 867 866 866 865 864 863 863 862 861 860 859 858 857 856 855 854 853 852 850 849 848 846 845 843 842 840 838 836 834 832 830 828 827 825 823 821 819 817 815 813 811 810 808 806 804 802 800 798 797 795 794 793 792 791 791 790 790 790
860 862 862 863 864 864 865 865 866 867 867 868 868 868 869 869 868 868 869 868 868 868 868 867 867 866 866 865 865 864 864 863 862 862 861 860 859 859 858 857 856 855 854 853 852 850 849 848 847 845 844 842 841 839 837 835 833 832 830 828 827 825 823 821 820 818 816 814 813 811 810 808 806 804 802 801 799 798 797 796 795 794 794 794 793
859 860 861 862 862 863 863 864 864 865 866 866 866 867 867 867 867 867 867 867 867 867 866 866 865 865 864 864 863 863 862 862 861 860 860 859 858 858 857 856 855 854 853 852 851 850 849 848 847 845 844 843 841 840 838 836 835 833 831 830 828 827 825 824 822 820 818 816 815 814 812 811 809 808 806 804 803 802 800 799 798 798 797 797 797
857 858 859 860 861 861 862 862 863 863 864 864 865 865 865 865 865 865 865 865 865 865 864 864 864 863 863 862 862 861 861 860 859 859 858 857 857 856 856 855 854 854 853 852 851 850 849 848 846 845 844 843 842 840 839 837 836 834 833 831 830 828 827 825 823 822 820 819 817 816 815 813 812 811 809 808 806 805 803 802 801 801 800 800 799
855 856 857 858 859 859 860 860 861 862 862 862 862 863 863 863 863 863 863 863 863 862 862 862 862 861 861 861 860 859 859 858 857 857 856 856 856 855 854 854 853 853 852 851 850 849 848 847 846 845 844 843 842 840 839 838 837 835 834 832 831 829 828 826 825 823 822 820 819 817 816 815 814 813 812 810 809 808 806 805 804 803 803 802 802
853 854 855 856 856 857 858 858 859 859 859 860 860 860 860 861 861 861 861 861 860 860 860 860 859 859 859 859 858 858 857 856 856 855 855 854 854 853 853 852 852 851 851 850 849 848 847 846 845 844 843 842 841 840 839 838 837 836 835 833 832 830 829 827 826 825 823 821 820 819 818 816 815 814 813 812 811 811 809 808 807 806 805 804 804
851 851 852 853 854 855 855 856 857 857 857 857 858 858 858 858 858 858 858 858 858 857 857 857 857 857 857 856 856 856 855 855 854 854 853 853 852 851 851 850 850 849 849 848 848 847 846 845 844 843 842 842 841 840 839 838 837 836 835 833 832 831 830 828 827 825 824 822 821 820 819 818 816 815 815 814 813 812 811 810 809 808 807 806 806
848 849 850 851 852 852 853 853 854 854 854 855 855 855 855 855 855 855 855 855 855 855 854 854 854 854 854 854 854 853 853 853 852 852 851 851 850 850 849 848 848 847 847 846 846 845 844 843 843 842 841 840 840 839 838 837 836 835 834 833 832 831 830 828 827 826 825 823 822 821 820 819 817 816 815 815 814 813 813 812 811 810 809 808 808
Wind_Speed
17 18 18 18 18 17 17 16 16 15 14 14 16 16 15 15 13 12 13 13 13 13 13 13 14 14 14 16 17 18 19 20 20 18 15 15 14 13 14 14 14 14 14 15 15 15 16 16 17 17 17 17 17 17 18 18 19 19 20 21 23 22 21 18 14 15 20 21 22 23 22 21 22 24 25 25 25 27 30 31 28 25 26 26 28
17 18 18 18 19 19 19 18 17 16 16 16 17 16 16 17 17 15 14 13 13 14 14 14 14 15 15 15 17 18 19 20 21 19 17 17 16 15 14 14 14 14 15 15 16 16 16 17 18 18 18 17 18 18 18 18 19 19 19 20 22 24 24 22 19 17 19 21 23 24 22 20 22 25 26 27 28 28 30 32 31 29 28 25 24
15 17 18 18 19 19 20 21 21 21 20 20 19 18 18 20 22 22 19 16 14 14 15 15 15 15 15 16 17 18 19 20 21 20 18 18 18 16 16 15 14 15 15 15 16 16 17 17 18 19 18 18 18 18 18 19 19 20 20 20 21 23 23 23 23 20 21 24 25 24 22 21 22 23 23 25 26 27 29 32 33 31 28 24 23
14 15 17 17 18 19 20 20 21 22 22 22 22 21 21 21 23 23 22 20 18 16 16 17 17 17 16 17 17 18 19 19 20 20 19 18 18 17 17 15 14 14 15 15 15 16 17 18 18 19 19 19 19 18 18 19 20 21 21 21 21 22 22 22 24 24 23 24 25 25 24 23 23 22 21 21 24 27 29 30 31 33 31 28 25
13 14 15 16 17 18 18 18 19 18 19 20 21 23 23 22 22 22 22 22 21 19 19 20 20 18 17 17 18 18 19 20 20 20 20 19 17 17 17 15 14 14 14 14 16 16 17 17 18 18 19 19 19 19 19 20 21 20 21 22 21 22 23 22 23 25 24 23 25 25 23 24 25 25 23 21 22 23 26 28 30 31 33 34 32
14 14 15 15 16 16 17 17 17 17 16 16 18 21 23 22 22 22 22 22 22 21 21 21 20 19 18 18 18 18 20 21 21 21 21 20 18 17 17 16 15 14 14 14 16 16 17 17 17 17 18 18 19 20 21 21 21 20 22 23 23 23 23 23 23 23 23 23 25 25 24 24 25 25 25 23 22 22 21 24 29 31 33 34 34
15 15 16 16 15 15 16 17 16 16 16 17 17 19 21 21 21 20 21 22 22 21 21 21 21 20 18 18 18 19 20 22 22 22 22 20 18 17 17 16 16 15 15 15 16 16 17 17 17 17 17 18 19 20 20 21 21 22 23 24 24 24 24 23 23 22 23 24 24 24 24 25 24 25 25 23 22 24 22 20 24 30 32 33 34
15 15 16 16 15 15 16 17 17 17 18 19 19 19 20 21 21 20 21 22 21 21 20 20 19 19 18 17 17 18 20 22 24 25 23 20 17 16 16 16 16 16 16 17 16 16 17 17 17 17 18 18 19 19 20 22 23 24 24 24 24 25 25 24 24 22 22 23 24 23 23 23 23 25 25 21 20 24 26 23 22 25 28 30 34
15 15 16 16 15 16 17 18 18 19 19 20 21 21 22 22 22 22 22 22 22 21 20 18 18 18 17 17 17 18 19 23 27 29 27 23 18 15 16 16 16 17 17 18 17 16 17 18 18 19 20 19 20 21 22 24 24 24 25 26 26 26 26 25 24 23 21 21 23 24 22 21 21 22 22 21 22 24 26 25 23 25 27 28 33
15 15 16 15 15 16 18 18 19 20 21 22 22 23 23 24 23 23 23 22 22 21 19 18 17 17 17 17 17 18 19 24 29 29 29 27 20 15 16 17 16 17 18 19 19 18 18 19 20 21 21 20 22 24 25 25 25 26 28 29 28 28 28 27 26 24 22 21 22 22 21 21 22 22 22 24 27 25 24 24 24 26 27 24 27
16 15 15 15 16 18 19 20 21 22 22 23 23 23 23 24 23 23 23 23 23 22 20 18 17 17 17 17 17 17 20 26 30 29 30 30 23 16 16 18 18 18 19 19 19 19 20 21 21 22 22 23 25 26 26 28 31 33 33 33 31 29 28 28 28 27 24 22 23 23 22 23 25 24 24 26 28 25 25 26 25 26 24 18 15
18 16 15 16 18 20 21 22 22 22 22 23 23 23 23 24 24 23 23 23 22 23 22 19 17 17 16 17 17 16 20 27 31 30 31 31 25 17 16 19 20 20 20 19 18 19 20 21 21 21 22 24 26 25 27 32 37 38 37 35 33 30 27 27 29 30 28 25 24 25 25 26 28 27 26 26 26 25 25 25 26 27 25 19 16
22 20 19 20 22 23 23 23 23 22 23 23 23 23 24 24 24 23 22 22 22 23 22 19 17 17 16 16 17 16 21 28 31 31 32 32 28 20 17 20 21 20 20 19 18 19 20 21 22 23 24 25 24 25 29 35 38 38 36 33 30 30 29 28 28 30 32 31 28 29 30 29 29 29 27 25 23 23 24 24 27 30 27 22 23
25 23 22 23 23 24 23 23 22 22 22 22 23 23 24 23 22 21 21 21 21 22 21 19 18 17 16 16 15 17 24 30 30 30 32 32 29 22 18 20 20 20 19 18 18 19 19 21 23 24 26 25 25 28 33 36 36 35 33 30 29 29 30 29 27 27 30 32 32 35 37 35 33 34 31 26 24 24 25 25 27 31 30 27 29
25 24 23 24 24 24 23 23 23 22 21 21 21 22 22 22 22 20 20 20 20 19 19 19 19 18 17 17 16 17 24 30 31 30 31 32 28 21 17 19 20 19 18 18 19 18 18 20 22 24 26 27 28 33 37 35 33 31 29 30 30 30 29 28 26 26 29 32 33 36 40 40 38 37 34 30 27 25 24 27 29 31 33 31 29
23 23 24 24 24 24 23 23 22 21 20 20 20 20 21 22 23 22 20 20 20 18 18 19 19 19 17 17 16 16 22 29 31 30 32 32 26 20 18 19 20 19 18 19 19 18 19 21 21 22 25 28 32 36 37 35 32 29 29 30 31 31 30 28 27 28 31 34 35 35 39 41 40 38 35 33 32 28 25 26 27 27 28 24 19
22 23 23 23 23 23 22 22 22 20 19 19 18 19 20 21 23 23 21 20 20 19 18 17 18 19 18 18 17 16 20 28 32 31 32 31 24 19 19 19 20 19 19 19 20 19 20 22 23 24 26 30 35 37 37 35 32 29 29 31 32 31 30 30 31 32 32 33 33 31 33 37 37 35 34 34 35 34 31 28 24 23 22 15 10
22 23 23 23 22 22 21 21 20 19 18 18 18 18 19 20 22 24 22 20 20 19 17 16 17 18 19 19 18 16 18 25 31 31 31 32 25 19 20 20 19 19 20 20 21 20 21 22 24 28 31 33 36 37 37 36 32 29 29 31 32 30 31 34 37 37 34 30 26 22 22 24 28 30 31 31 32 34 35 31 25 22 20 15 12
22 22 22 21 20 20 19 19 18 17 17 17 17 18 19 19 21 23 23 20 19 18 17 17 16 17 19 19 19 18 18 23 30 31 30 32 27 20 20 20 19 19 21 22 22 22 23 23 25 32 36 37 37 37 37 37 33 30 30 31 31 32 35 38 37 34 31 28 23 18 14 11 13 19 23 24 25 28 31 30 26 24 22 20 19
21 22 21 20 19 18 17 17 16 15 15 16 17 17 18 19 20 22 23 20 19 19 19 17 16 16 18 19 20 21 19 22 28 30 29 31 28 22 20 20 19 19 21 22 22 23 25 25 26 34 39 39 37 37 38 38 35 31 32 34 33 35 38 37 33 29 26 23 22 20 17 12 7 4 7 10 13 17 20 22 23 24 23 22 22
21 20 19 19 17 16 15 14 14 14 14 14 15 16 17 18 19 20 21 20 20 21 20 18 16 16 17 18 19 22 22 23 26 28 28 29 30 26 22 21 19 18 20 22 22 24 27 26 28 35 40 40 38 38 38 39 37 34 36 37 37 36 37 35 31 27 24 22 23 24 24 21 17 11 7 4 4 8 12 14 16 18 21 23 23
20 19 19 17 16 14 13 12 12 11 12 12 13 14 15 16 17 17 18 19 18 19 19 18 16 16 17 17 18 19 21 24 27 28 27 28 30 29 27 26 22 18 19 22 22 24 26 27 30 36 40 40 39 38 39 40 40 38 38 38 39 40 38 34 30 26 24 25 26 27 28 27 24 20 16 12 9 6 6 8 11 14 18 23 25
20 19 18 16 14 13 11 10 10 9 9 9 10 11 12 13 14 15 16 16 15 16 17 17 15 15 16 16 17 18 19 22 26 27 27 28 30 30 30 30 27 22 20 21 22 24 26 28 32 37 40 40 40 39 39 40 40 41 40 38 39 41 38 34 31 28 26 27 29 30 31 30 28 26 21 17 14 10 7 7 6 8 12 17 23
19 18 17 15 13 12 10 9 8 8 7 8 8 9 10 11 11 12 14 14 13 13 15 15 15 15 15 15 16 18 19 20 24 26 27 28 30 31 30 31 30 27 22 20 21 23 26 29 33 36 38 40 41 40 40 40 41 42 42 40 39 39 37 35 34 31 29 31 33 32 32 32 30 27 23 20 17 13 9 10 9 6 6 9 15
18 17 15 14 12 11 9 8 7 6 6 7 7 8 9 9 9 10 11 11 11 12 13 14 14 14 15 15 16 18 19 19 21 24 25 25 27 30 30 30 31 28 23 21 22 24 27 31 32 34 36 39 41 42 42 41 40 41 43 43 41 39 37 38 39 36 31 30 31 30 30 31 28 25 23 21 20 17 14 12 10 8 6 4 4
18 16 14 12 11 9 7 6 5 5 5 6 6 7 8 8 7 8 8 9 10 11 11 12 13 13 14 14 15 17 18 19 20 22 23 23 24 27 29 29 30 28 25 25 26 26 28 31 33 33 34 35 37 40 41 41 40 41 43 45 43 41 39 39 38 36 31 29 29 29 29 29 27 26 27 26 24 22 20 16 13 11 11 9 10
17 15 13 11 9 7 6 4 4 4 5 5 5 5 6 7 6 6 7 8 9 10 10 11 11 12 13 14 14 15 16 18 20 22 23 23 23 24 25 27 28 26 25 27 27 24 26 29 31 32 32 33 36 40 42 43 43 42 43 44 43 42 40 37 34 33 33 31 30 30 30 31 31 31 32 32 30 26 22 18 15 15 14 14 17
15 13 12 10 8 7 6 5 4 3 3 4 4 4 4 5 5 6 7 8 8 8 9 9 10 11 12 13 13 13 15 17 20 22 23 23 23 23 23 25 25 24 25 27 25 23 23 26 28 29 31 31 33 35 40 43 44 42 41 41 41 42 41 39 36 35 34 33 33 33 34 35 34 33 32 33 34 32 26 20 17 18 18 18 18
14 12 10 9 8 7 5 5 4 3 3 4 4 3 4 4 4 5 7 8 8 8 8 8 9 11 11 12 13 13 14 16 18 20 20 20 21 21 21 23 24 24 25 26 24 23 25 26 27 28 29 30 30 30 32 37 41 42 42 40 40 42 43 41 39 36 34 33 33 34 35 35 34 33 32 32 33 34 33 28 22 21 21 22 22
13 11 10 9 8 7 5 5 4 4 3 3 3 3 3 3 4 5 6 7 8 9 8 8 10 12 11 10 12 13 13 14 16 18 18 17 18 19 21 23 24 25 27 25 22 23 27 28 28 28 27 28 29 28 27 29 33 38 40 40 39 41 43 41 38 35 34 33 32 32 33 34 34 33 32 31 30 31 33 33 30 27 26 25 25
13 11 11 10 9 8 6 5 5 4 3 3 3 2 2 2 3 4 5 7 7 9 9 8 9 11 11 10 11 12 12 13 14 16 17 17 17 19 21 23 25 27 28 25 20 22 27 27 27 28 27 25 26 26 26 26 27 29 34 38 38 39 41 40 37 34 34 35 34 34 33 33 33 33 32 31 30 28 30 33 33 32 30 29 28
13 12 12 11 10 9 8 7 6 4 3 3 2 1 1 2 3 3 4 5 7 8 9 9 8 9 10 10 11 11 12 13 14 15 15 16 17 19 21 23 25 27 27 23 20 23 26 26 26 28 28 25 25 25 25 25 26 25 28 34 38 38 38 37 36 34 35 35 35 34 33 33 33 32 32 33 32 29 29 30 30 30 30 29 29
14 14 13 12 11 10 9 7 6 5 4 3 2 1 1 1 2 3 3 4 5 6 8 9 8 8 8 9 10 11 11 13 14 14 15 16 17 19 21 22 25 26 25 23 21 22 24 25 26 27 27 25 25 25 24 24 26 25 27 31 35 36 36 36 36 36 35 35 35 34 34 34 33 31 30 31 31 31 29 29 29 28 28 27 26
14 14 13 12 11 11 10 8 6 5 4 4 3 2 1 0 2 3 3 3 4 5 6 8 8 7 7 7 9 10 11 12 13 14 15 16 17 20 21 20 22 23 23 21 20 20 21 23 24 25 26 25 24 24 24 24 25 26 26 28 31 36 38 38 37 35 34 34 35 35 34 34 33 31 28 27 28 29 30 30 29 28 27 26 25
13 13 12 11 11 10 10 9 7 6 5 4 4 3 3 2 1 1 2 3 4 4 4 5 6 7 7 7 8 9 10 12 13 14 15 16 18 20 20 18 19 20 21 20 20 19 19 20 21 22 23 23 22 23 24 24 24 25 25 24 27 33 38 38 37 35 33 33 35 35 35 35 33 31 29 28 26 26 27 29 30 29 27 26 24
14 12 11 11 10 10 9 9 7 7 6 5 4 4 4 4 4 2 1 2 2 3 4 4 5 6 7 8 8 9 10 11 12 13 15 16 18 18 17 16 17 18 19 19 19 18 17 18 19 20 21 21 21 22 23 23 24 26 27 25 24 29 34 35 35 35 34 34 35 36 37 37 35 33 32 31 29 27 26 27 29 29 28 27 26
14 13 11 10 10 9 9 9 8 8 7 7 6 6 5 5 5 4 2 0 1 2 3 4 5 5 6 7 8 9 10 10 11 13 14 16 17 17 15 15 17 17 17 19 18 17 17 18 18 19 20 21 21 21 22 22 22 25 28 27 26 29 32 33 34 36 36 35 36 37 37 37 36 34 31 28 26 26 26 26 26 27 28 28 26
15 13 11 10 9 10 10 9 9 8 8 8 8 9 9 7 6 6 4 2 1 1 2 3 4 4 5 7 8 9 9 10 10 11 13 14 15 15 14 14 15 16 16 17 17 17 16 17 17 18 19 20 21 21 21 22 22 23 27 27 27 30 32 33 35 37 36 34 35 36 36 35 34 32 29 25 23 24 26 25 23 22 24 24 23
16 14 12 10 9 9 9 10 9 9 8 8 8 9 9 7 7 8 6 4 3 2 2 2 3 4 5 6 8 9 9 8 8 10 11 12 12 12 13 13 14 15 15 16 17 17 16 16 17 18 18 20 21 21 21 21 22 22 24 24 25 28 30 31 33 35 35 33 33 33 34 34 32 29 27 25 23 24 26 26 23 20 20 20 20
18 15 13 12 10 9 9 10 10 9 8 8 7 7 7 6 7 8 6 5 4 3 3 3 3 3 4 6 7 8 8 8 8 9 9 10 11 11 11 12 13 14 14 14 15 16 15 15 15 17 18 19 21 21 22 23 22 22 22 22 23 25 28 31 33 33 33 33 33 32 33 32 30 28 26 24 23 23 23 23 22 21 20 19 18
19 17 14 13 12 10 10 10 11 11 9 8 7 6 6 5 6 7 7 6 5 5 4 4 4 4 5 5 6 7 7 7 8 8 8 9 9 9 10 11 11 12 13 13 13 14 14 14 14 16 18 20 22 23 24 25 23 20 20 21 24 25 26 29 32 33 32 32 32 32 32 31 29 27 26 23 21 21 20 18 18 19 19 19 19
18 18 16 14 13 12 11 11 12 11 10 9 7 6 6 5 5 7 8 7 6 6 6 5 5 6 6 5 6 6 6 6 7 8 7 7 8 8 8 9 9 11 12 12 13 13 14 14 14 14 17 20 23 24 24 25 23 20 18 20 24 26 26 28 30 31 31 30 31 32 33 31 28 28 28 25 21 20 20 18 16 16 17 17 17
18 18 16 14 14 12 12 12 13 12 11 10 8 7 6 6 5 6 8 8 8 8 8 7 7 7 7 7 6 6 6 6 6 7 7 7 7 7 7 7 8 9 11 11 12 13 13 13 13 14 15 17 20 22 22 22 22 20 18 19 21 24 26 27 28 29 29 29 28 28 31 31 27 26 28 29 25 22 22 20 17 15 15 15 15
18 17 15 14 13 12 12 13 13 12 12 11 10 8 7 6 6 6 8 8 8 9 9 8 8 9 9 8 7 7 6 6 6 6 6 6 6 6 6 6 7 7 9 10 10 11 12 12 13 14 14 15 18 20 21 21 21 20 19 18 19 21 23 24 25 25 26 26 24 22 24 28 27 24 25 27 26 24 23 21 19 16 16 15 14
19 16 15 14 13 13 13 14 13 13 12 12 12 11 9 8 7 7 8 8 8 8 9 9 10 10 10 10 9 8 7 7 7 6 6 6 6 5 5 6 6 7 8 8 9 9 10 11 12 13 14 15 17 18 19 19 19 19 18 18 17 18 19 20 21 22 23 24 23 20 19 22 24 24 22 22 22 21 22 22 20 17 15 15 15
19 16 14 14 15 14 14 14 14 13 13 13 13 13 11 10 9 9 9 9 9 9 9 9 9 9 9 10 10 9 8 8 8 7 6 5 5 5 5 6 6 7 7 8 8 8 8 8 10 11 12 13 15 16 17 18 18 18 18 17 17 16 17 17 18 19 20 21 21 20 19 18 20 22 23 21 19 20 21 22 21 18 15 13 14
19 16 15 16 16 15 15 15 15 15 14 14 14 14 13 12 11 11 11 11 11 11 11 10 9 9 8 8 9 9 9 9 8 8 7 6 6 5 5 6 6 6 6 7 7 7 7 6 7 8 9 10 12 14 15 16 17 17 17 17 16 16 16 16 16 16 17 18 18 19 19 18 17 19 21 21 20 20 19 19 18 18 16 13 11
19 18 17 16 17 17 16 16 16 16 16 16 15 15 15 14 14 13 13 13 13 13 13 12 11 10 9 8 9 9 9 9 9 9 8 7 7 7 7 7 6 6 6 6 6 7 7 6 6 6 6 8 9 11 12 13 14 15 16 16 16 16 16 16 16 15 15 16 17 17 17 17 16 17 19 20 19 18 17 16 16 15 14 13 11
17 19 18 17 17 17 18 18 17 16 16 16 16 17 17 16 16 16 15 16 16 16 15 15 14 12 11 9 9 9 8 9 9 8 8 7 8 8 9 9 8 8 7 6 6 6 6 7 7 6 6 6 7 8 10 11 11 12 13 13 14 15 16 16 16 16 15 15 16 16 16 16 16 15 16 17 17 16 16 16 15 13 12 12 11
15 17 18 18 17 17 18 18 17 17 17 17 17 18 18 18 18 18 18 18 18 18 18 18 18 16 14 12 10 9 8 8 8 8 8 8 8 9 10 10 10 9 9 8 7 7 7 7 7 7 7 7 7 8 9 10 10 10 11 11 11 13 13 14 15 16 17 16 16 15 15 15 15 15 14 14 14 15 14 14 14 12 10 10 10
16 17 18 19 19 18 18 18 18 17 17 18 18 19 20 20 20 20 20 19 20 21 21 21 20 19 18 16 14 12 10 9 9 9 9 9 8 9 10 10 10 10 10 10 10 9 9 9 9 9 8 8 8 8 9 9 10 10 10 10 10 10 11 12 13 14 16 16 16 16 16 15 14 14 14 12 12 13 13 13 12 10 9 8 7
Wind_Direction
80 79 76 74 72 71 68 67 66 64 63 62 60 59 53 49 50 49 50 49 45 44 42 40 38 35 34 29 26 24 22 21 19 17 14 9 5 2 359 356 354 350 348 348 348 347 343 341 339 337 335 332 330 327 322 319 315 309 303 301 296 288 277 264 261 272 276 272 269 269 267 262 259 258 253 250 250 248 246 244 240 236 235 234 236
83 81 78 75 72 70 69 68 67 66 65 64 62 60 56 54 55 54 52 49 46 44 41 39 38 36 35 31 27 25 22 20 19 16 12 7 4 1 356 353 351 349 348 347 346 345 343 340 338 338 336 334 331 330 327 325 322 317 312 308 303 299 296 288 278 272 273 271 267 268 267 257 255 258 254 249 249 246 244 244 240 235 234 234 234
87 83 81 77 73 71 70 68 68 68 66 65 64 62 59 58 59 59 58 54 50 47 44 42 41 40 38 32 28 25 21 19 18 15 11 5 2 358 354 352 350 348 346 345 343 342 341 338 338 338 336 333 331 331 330 328 326 322 317 313 309 304 303 302 298 291 283 275 268 266 265 257 254 255 252 249 250 246 243 243 240 235 233 234 232
90 86 83 79 75 72 69 67 66 64 63 63 64 64 62 60 60 60 60 58 56 52 49 47 45 43 39 33 29 26 22 18 15 13 9 4 360 357 353 350 349 349 346 344 342 340 339 337 336 336 334 333 331 331 331 330 328 323 318 316 314 310 308 305 303 301 297 290 278 268 263 260 257 254 249 246 247 246 244 243 240 236 235 235 234
94 89 84 80 75 72 68 65 63 62 61 60 61 63 64 62 61 60 60 60 58 55 52 49 47 43 39 34 30 27 23 19 14 11 7 2 359 356 353 350 348 348 346 345 344 341 339 336 335 335 334 332 330 330 330 329 328 324 321 319 316 312 310 306 303 301 297 293 289 280 269 263 260 257 251 245 243 244 242 240 239 239 237 236 238
96 91 86 81 76 72 68 65 64 62 61 60 60 63 64 64 62 61 60 60 58 55 53 50 47 43 39 34 31 28 24 19 15 10 5 1 358 355 353 351 349 347 346 346 344 342 340 336 334 335 334 332 330 329 328 326 326 323 320 319 317 313 310 306 304 301 293 288 287 285 279 270 261 256 253 246 241 242 241 236 237 238 236 233 235
94 91 88 84 79 75 72 68 67 66 65 66 65 64 65 65 63 61 60 58 56 54 52 49 45 42 39 35 32 29 24 19 15 10 5 0 357 354 353 351 350 348 345 344 343 342 340 337 336 336 335 332 330 328 327 326 324 320 317 316 314 312 310 307 305 301 295 290 285 281 280 274 263 255 254 247 239 242 242 236 232 232 231 229 230
92 88 86 85 81 80 77 73 71 71 71 71 69 68 67 65 63 61 58 56 54 52 50 47 44 41 38 35 33 29 24 20 16 12 7 2 356 354 353 352 350 348 345 344 343 341 340 338 335 335 334 330 328 327 326 324 321 318 316 315 312 309 307 305 304 300 294 290 286 282 279 274 266 258 253 244 234 235 237 238 235 230 228 227 228
90 87 86 85 84 83 80 76 75 75 74 72 70 69 67 64 62 59 56 54 52 51 50 47 43 40 37 36 34 30 25 20 18 16 12 7 0 355 354 354 351 349 347 345 344 342 341 339 335 333 332 329 328 326 323 320 318 315 313 312 310 306 302 299 298 296 292 288 285 283 278 271 264 257 250 238 234 236 235 234 236 234 231 228 228
89 87 86 86 87 86 82 80 79 77 75 73 71 68 66 63 61 58 56 54 53 52 50 46 42 38 36 35 34 31 24 19 19 20 18 13 7 358 357 357 354 352 350 347 347 346 343 340 336 334 333 333 331 328 323 320 317 313 310 307 302 298 295 293 289 286 285 282 280 279 276 270 262 255 250 242 238 239 233 227 231 234 229 224 226
92 89 89 90 91 88 86 83 80 77 75 73 70 67 64 62 59 57 55 53 51 50 48 45 41 38 36 34 34 30 22 18 20 21 19 18 14 6 2 1 358 356 354 351 349 348 346 344 341 338 337 336 333 329 326 323 320 317 314 309 303 295 287 282 280 278 276 273 272 271 269 267 263 258 254 246 237 233 231 227 228 229 222 213 219
97 95 95 97 95 92 89 86 81 78 75 72 70 66 63 60 57 54 53 50 48 47 46 43 39 37 35 34 33 29 19 18 20 20 18 19 20 17 8 6 3 358 355 353 351 348 345 343 341 338 337 334 333 332 330 327 325 322 318 315 312 304 292 281 276 273 270 268 268 267 264 264 264 259 252 246 239 235 234 229 225 224 219 209 211
104 104 103 102 99 96 92 87 82 79 76 73 70 66 61 58 55 53 51 49 48 47 45 42 39 37 35 33 33 27 19 18 20 20 18 19 23 23 13 8 7 0 357 355 351 348 345 343 341 337 335 335 335 335 333 331 328 325 321 318 314 309 304 295 285 277 271 265 263 263 262 261 261 258 252 248 243 235 229 226 225 227 223 212 212
109 109 108 105 103 98 93 87 83 80 77 74 70 65 62 59 55 52 49 47 46 45 42 40 38 36 33 31 31 25 20 20 20 19 17 18 22 23 13 8 7 1 358 357 351 348 345 343 342 339 338 338 338 338 337 334 330 326 320 316 312 310 308 304 298 290 280 269 261 261 264 263 259 257 255 251 247 239 229 225 227 229 227 224 224
112 112 110 108 105 99 93 88 84 80 77 74 70 67 64 60 55 52 48 46 45 43 41 38 35 34 32 29 30 25 20 21 22 19 16 17 21 19 10 7 5 360 358 358 353 349 347 346 344 342 341 341 340 342 342 338 332 325 319 314 314 312 308 305 302 298 292 282 271 265 267 267 262 257 254 250 249 248 240 234 234 234 233 234 232
113 113 111 109 106 100 94 90 86 81 77 74 72 68 64 60 55 51 48 46 46 43 41 38 34 33 30 27 29 26 20 21 23 20 17 17 18 14 8 5 3 359 358 357 354 352 351 350 348 345 343 343 344 347 349 345 336 329 324 319 318 316 312 309 307 303 300 296 287 276 270 267 264 258 252 247 246 251 255 251 244 238 235 232 225
115 115 113 110 106 101 97 92 87 83 78 75 73 70 65 59 54 51 48 45 45 42 41 39 36 34 31 28 28 27 20 21 24 22 19 19 17 10 6 5 2 359 357 356 355 353 352 353 354 352 347 346 349 352 354 351 342 334 331 326 324 322 317 317 320 319 314 310 303 292 279 270 263 254 249 247 245 248 256 259 248 235 228 223 211
118 117 114 111 107 102 98 94 88 84 80 77 74 71 65 59 54 52 50 47 44 42 39 38 37 35 33 30 28 27 22 20 24 25 23 22 20 12 7 4 1 359 358 356 356 354 352 353 356 356 353 351 354 357 358 355 346 339 337 333 330 329 327 327 330 329 325 323 320 310 294 277 259 246 244 247 245 243 247 250 246 234 222 215 217
121 119 117 113 110 104 99 95 90 86 81 78 75 71 66 61 57 53 51 48 44 42 40 39 37 34 33 31 29 28 24 20 24 27 26 25 25 18 10 7 3 0 359 356 356 356 354 354 355 356 358 358 359 0 1 360 353 346 344 342 338 335 335 336 334 331 330 335 340 340 333 309 268 246 246 251 250 247 248 250 251 244 232 220 217
124 122 120 117 112 108 102 98 93 88 83 79 75 72 67 62 58 54 51 48 45 44 43 40 37 35 33 33 32 31 27 22 23 28 29 29 28 24 16 10 5 1 0 359 359 358 357 356 354 357 1 3 3 4 5 5 2 355 353 351 344 340 343 344 340 335 338 347 356 3 9 11 1 287 256 252 249 250 253 254 252 246 240 230 218
127 126 124 121 117 113 108 103 98 91 86 80 74 70 65 59 57 53 50 48 46 44 42 39 37 35 34 34 33 32 31 26 23 26 31 32 32 30 23 15 9 4 3 5 5 2 1 358 355 359 3 5 6 7 7 8 9 5 1 358 354 353 354 350 343 342 350 358 6 14 20 20 19 18 10 349 289 264 259 257 251 244 240 233 226
132 130 129 126 124 121 116 110 103 94 87 78 69 63 58 54 53 51 49 47 45 42 40 37 35 34 32 32 31 29 30 27 23 27 33 36 36 35 30 25 21 13 8 10 9 7 5 1 358 3 6 7 9 10 8 10 12 11 8 5 5 6 3 353 347 351 360 5 10 17 20 19 19 18 15 12 5 337 297 274 258 249 243 236 232
137 135 134 133 131 129 124 115 106 96 85 75 65 58 54 51 50 49 47 44 40 38 36 33 31 31 29 29 27 26 27 25 24 28 36 38 37 37 34 31 29 24 17 14 12 9 6 3 3 7 9 10 12 12 11 11 13 13 13 11 10 11 6 356 355 0 5 9 14 16 16 14 14 15 12 9 9 9 5 352 315 277 266 249 240
141 140 140 140 138 134 128 118 107 94 82 72 63 56 53 51 47 45 43 40 36 35 33 29 28 28 26 23 23 25 27 25 24 29 36 37 35 35 34 31 31 29 22 15 12 9 8 8 9 11 11 12 14 14 14 13 13 14 15 14 13 12 6 1 2 6 9 13 15 14 13 12 11 10 10 12 16 22 28 20 10 347 314 277 254
147 147 146 146 144 138 131 120 104 90 81 72 65 58 53 49 45 41 40 37 35 34 32 29 27 26 23 20 20 23 26 24 21 24 28 29 28 29 30 29 30 29 22 14 13 13 13 13 13 13 13 15 16 16 15 14 14 14 16 18 16 12 8 7 8 8 7 9 11 11 11 11 11 11 15 23 29 32 35 34 30 28 17 345 277
155 155 154 152 150 143 134 124 102 91 84 75 71 65 56 50 45 39 37 36 36 35 31 28 26 25 22 19 20 23 23 22 20 18 19 18 18 20 22 24 26 26 22 18 19 18 16 16 15 14 14 14 15 15 14 14 14 14 17 19 17 13 12 11 8 6 4 2 6 11 12 12 16 21 26 33 34 30 31 35 37 39 41 53 65
163 164 162 159 156 148 140 131 109 93 86 79 76 70 61 55 48 41 37 34 33 33 30 27 25 23 19 15 17 22 23 21 19 16 15 15 14 14 16 18 20 20 18 18 17 14 13 14 15 15 16 15 16 17 16 16 16 15 16 17 17 16 16 14 10 9 9 5 6 13 17 18 22 25 29 32 32 29 30 34 37 43 50 60 67
167 168 167 163 160 152 144 139 126 106 93 92 92 85 71 59 51 46 40 35 32 30 29 28 25 22 19 13 13 19 22 21 19 16 17 18 17 15 15 17 18 16 16 17 15 11 12 14 13 14 15 14 13 14 15 16 16 16 15 16 16 17 18 17 15 14 14 12 13 17 21 22 22 23 27 31 31 31 32 34 37 45 53 58 63
170 170 170 168 165 162 157 151 143 130 115 110 112 110 94 70 59 51 42 38 37 33 31 31 29 28 24 17 15 17 18 18 18 19 21 24 25 23 20 20 20 18 19 21 18 14 17 19 15 14 15 13 11 9 9 11 13 14 15 15 16 18 18 17 15 14 14 14 15 17 21 23 22 21 23 28 31 33 37 39 42 48 55 59 60
178 179 179 179 177 174 172 168 161 151 137 126 117 111 103 83 68 58 45 40 38 36 36 34 32 32 31 26 23 23 19 15 15 19 24 28 30 27 24 24 24 22 24 25 21 18 22 23 19 15 14 13 11 7 4 5 8 11 13 14 14 17 18 17 16 15 16 17 18 19 22 24 23 22 23 25 29 34 38 42 46 49 54 59 60
186 187 189 189 186 182 183 182 177 167 152 137 122 110 109 94 75 60 47 40 37 36 36 32 29 30 31 29 29 28 25 20 17 18 24 28 28 25 25 25 25 24 25 25 21 20 23 23 20 17 14 11 10 6 2 3 3 4 10 13 14 16 17 17 17 17 19 20 21 22 24 24 24 24 25 28 29 32 37 42 46 50 52 55 56
189 191 193 192 188 186 188 188 186 183 176 164 150 132 120 107 84 65 51 42 37 35 33 30 26 24 24 25 26 24 23 24 23 23 27 28 25 24 26 27 25 24 25 25 22 22 23 22 20 19 16 12 9 5 3 4 2 1 6 11 14 16 16 16 19 22 23 23 23 24 25 25 26 26 28 31 32 32 34 38 42 47 50 52 53
186 188 191 192 191 190 192 192 191 192 194 194 192 182 140 101 74 65 64 55 46 39 33 27 22 18 17 19 22 20 21 24 25 26 28 27 23 22 25 26 25 24 25 24 22 21 21 21 21 21 18 15 12 7 6 7 5 4 7 11 14 17 18 19 23 25 26 26 27 27 28 27 27 27 28 31 34 35 35 36 38 43 47 48 51
180 183 187 189 190 192 193 194 196 200 207 216 219 226 253 301 49 51 59 60 55 49 38 26 18 16 16 16 17 19 20 21 20 23 25 22 20 21 22 21 20 22 25 24 21 19 18 19 20 20 18 16 13 8 8 9 8 7 7 9 14 20 23 25 26 25 26 27 28 29 30 30 30 30 28 29 33 35 36 38 39 41 44 46 50
178 181 184 185 185 187 191 193 199 208 218 229 230 235 249 254 275 30 45 49 45 44 42 30 18 14 16 16 14 14 17 17 16 17 19 18 18 20 20 17 16 19 22 22 20 18 17 15 16 16 15 14 13 10 9 10 10 10 9 7 10 18 23 27 28 27 27 29 28 29 32 34 36 37 37 36 36 36 36 40 42 44 45 47 50
182 185 187 187 187 188 189 193 204 214 224 237 243 246 255 255 252 266 25 52 43 37 39 31 19 15 17 17 12 10 12 13 13 14 16 18 20 21 18 16 16 17 19 19 17 17 16 15 14 13 12 12 12 12 11 10 10 12 15 13 12 17 21 24 27 30 31 31 30 32 35 37 38 41 42 42 41 41 41 43 46 48 50 52 53
190 195 198 200 201 201 199 201 210 219 230 244 254 261 266 257 246 245 250 336 33 32 28 19 14 14 15 16 13 9 8 11 13 16 17 19 21 23 19 17 17 17 17 18 16 14 16 16 14 13 12 12 11 11 11 11 10 13 17 18 17 20 22 25 28 32 33 32 33 34 36 37 38 40 41 40 39 42 45 46 47 49 51 53 54
197 202 206 206 207 209 209 209 212 221 232 245 257 267 270 261 243 235 233 238 264 317 1 3 7 9 8 10 10 7 7 9 11 12 14 15 17 18 16 16 18 17 16 17 16 14 16 16 15 14 14 12 11 10 10 10 10 12 17 19 19 22 24 26 28 31 32 31 32 34 36 38 38 39 40 40 39 42 45 46 46 47 49 51 51
202 206 210 210 210 211 211 210 209 216 230 244 256 267 271 259 236 228 229 238 254 274 305 331 348 355 357 1 2 1 3 5 4 4 7 9 11 12 12 14 16 14 14 15 16 16 17 17 16 16 15 13 12 11 9 9 12 15 16 17 18 21 23 24 26 29 30 30 30 32 35 37 38 38 40 42 44 47 49 49 49 49 49 51 52
204 207 211 215 220 223 219 212 208 214 229 242 250 260 268 254 227 221 227 237 249 264 284 301 318 333 340 349 355 355 355 357 358 359 2 4 6 9 10 11 11 10 11 13 14 16 18 17 17 17 16 14 14 13 11 12 16 17 17 17 19 21 23 26 28 30 31 31 31 31 33 36 37 37 38 40 44 49 52 53 54 55 55 55 55
204 209 215 224 233 237 229 218 214 219 231 240 243 252 267 262 231 222 229 240 251 265 278 288 297 305 314 328 342 347 348 349 353 355 358 1 3 5 6 7 8 7 7 9 12 15 16 17 17 17 16 16 16 15 15 17 19 18 16 19 22 23 25 28 31 32 32 32 32 31 32 34 35 36 38 38 39 44 49 51 53 57 59 58 59
206 210 218 227 234 237 231 221 218 223 232 237 238 250 268 273 249 231 233 243 254 264 274 285 292 294 298 308 322 332 336 339 345 351 354 357 358 1 3 4 4 4 5 7 10 13 14 15 15 14 14 16 17 16 17 18 20 19 16 19 24 26 26 27 30 32 33 33 33 33 34 34 34 35 38 39 37 38 43 46 50 55 58 59 60
209 211 218 227 233 235 230 221 219 226 233 233 233 244 261 269 261 244 240 247 260 269 275 284 291 294 296 300 307 315 320 325 334 343 348 350 352 354 357 358 358 1 4 6 10 14 16 15 14 14 14 15 16 17 18 19 21 22 20 19 23 26 26 26 28 30 32 32 31 31 33 33 31 31 34 38 39 38 39 41 44 47 52 55 58
212 213 220 228 234 235 228 220 221 230 235 233 233 242 253 258 255 248 245 251 262 271 276 283 291 298 303 303 302 305 310 314 322 331 336 340 343 344 348 351 352 354 358 2 8 16 19 19 18 19 19 18 17 18 20 21 22 24 23 20 20 22 24 24 25 26 28 29 27 25 28 31 31 28 28 31 34 36 37 39 41 42 46 50 53
214 217 222 228 233 233 228 223 225 230 234 234 236 241 248 252 248 246 247 251 259 268 276 284 292 300 305 306 304 303 304 306 311 316 320 326 330 333 336 341 342 343 349 355 1 11 18 21 21 22 23 22 21 20 20 21 23 25 25 23 22 21 20 20 21 21 22 25 25 22 22 26 29 28 27 27 28 30 34 38 40 40 43 46 49
215 220 226 230 232 232 231 230 229 229 233 237 239 241 246 250 249 249 251 253 257 263 271 280 290 298 303 306 307 306 304 303 304 305 305 308 313 316 322 330 335 336 338 342 349 358 8 15 19 23 24 23 23 23 23 22 23 24 25 25 25 23 20 19 19 18 17 19 22 23 23 24 26 27 28 28 26 26 30 35 38 40 42 44 47
223 228 231 232 232 233 234 234 232 231 234 239 241 242 246 250 253 256 259 259 262 265 267 271 280 289 294 300 305 307 308 306 303 299 293 292 295 298 301 311 324 331 332 334 338 343 349 357 8 16 20 19 19 21 23 23 25 26 27 27 26 25 23 21 19 18 18 18 19 20 21 22 23 24 26 28 27 26 25 26 29 34 38 40 44
230 230 230 232 234 234 234 233 233 235 238 242 244 247 250 253 256 259 262 263 266 268 268 269 272 277 281 288 297 305 310 311 307 298 288 283 287 291 291 293 299 310 318 325 330 333 335 336 339 349 1 7 8 9 12 16 21 25 28 30 29 29 28 26 22 20 20 21 21 21 20 20 19 18 21 24 25 24 23 22 23 26 30 34 40
230 228 227 230 234 236 235 234 236 239 242 244 246 249 252 256 258 261 264 267 269 271 271 270 270 272 273 277 284 294 303 307 304 296 286 282 286 291 292 291 290 290 293 301 311 320 327 329 325 325 330 337 343 350 355 358 5 12 19 24 28 30 32 31 29 26 23 24 25 24 21 20 19 17 16 17 19 19 20 22 23 21 22 28 35
228 227 228 231 234 236 236 236 239 244 247 249 251 252 254 257 261 263 265 267 269 272 274 274 274 273 272 269 270 276 284 290 291 288 284 283 289 295 297 295 290 285 281 282 287 294 304 312 316 317 318 318 319 326 333 338 344 351 358 5 13 20 26 30 31 31 30 29 29 27 25 24 24 23 19 17 17 16 17 19 20 18 18 23 27
230 228 229 233 237 239 239 239 242 247 251 254 256 257 258 260 263 266 267 268 269 272 274 275 276 275 273 269 266 265 268 272 277 279 279 280 286 297 301 297 290 284 280 278 279 282 286 292 299 304 307 310 310 310 314 320 325 330 336 343 350 358 7 15 22 27 30 30 30 30 29 26 26 26 25 22 20 17 15 15 15 13 13 18 19